Location: Morisset
(33.1080°S, 151.4871°E)
Time: 09:09:47
(UTC+00:00)

ATLAS 5 CENTAUR R/B - Pass Details

Date: 29 October 2020
Orbit: 531 x 1127 km, 63.4° (Epoch: 22 November)

Event Time Altitude Azimuth Distance (km) Brightness Sun altitude
Exits shadow 15:30:18 47° 91° (E) 1,432 3.4 -36.0°
Drops below altitude 10° 15:36:02 10° 138° (SE) 2,893 5.7 -35.3°
Sets 15:38:40 0° 143° (SE) 3,787 6.6 -35.0°
